Meteo Giornale » Osservazioni meteo Italia » Firenze-Peretola

ore: 20:50 - Osservazioni Meteo Firenze-Peretola
Lat. 43° 48' N Lon. 11° 12' E Alt. 40 metri s.l.m.

poco_nuvoloso Europe/Rome

15 °C

Poco Nuvoloso

Temp. 24 Ore

12 °C

19 °C

Ovest/Sud-Ovest

11.1 Km/h

Dew point 9 °C

Umidità 67 %

Visibilità  10 Km

Il sole sorge alle ore 05:49

Il sole tramonta alle ore 20:33

Data e Ora Cielo e Fenomeni T °C DP °C Um. % Pres. hPa Vis. km Vento km/h
Oggi h: 20:50 poco_nuvoloso Poco Nuvoloso 15 9 67 1008 10 O/SO 11.1
Oggi h: 20:20 poco_nuvoloso Poco Nuvoloso 15 9 67 1007 10 O/SO 13
Oggi h: 19:50 poco_nuvoloso Poco Nuvoloso 16 8 58 1007 10 O 14.8
Oggi h: 19:20 poco_nuvoloso Poco Nuvoloso 17 8 55 1007 10 O 18.5
Oggi h: 18:50 poco_nuvoloso Poco Nuvoloso 17 8 55 1007 10 O 20.3
Oggi h: 18:20 poco_nuvoloso Poco Nuvoloso 18 8 51 1007 10 O/SO 20.3
Oggi h: 17:20 nuvoloso Nuvoloso 19 9 52 1007 10 O/SO 25.9
Oggi h: 16:50 nuvoloso Nuvoloso 18 9 55 1007 10 O 22.2
Oggi h: 16:20 nuvoloso Nuvoloso 19 9 52 1007 10 O/SO 25.9
Oggi h: 15:50 nuvoloso Nuvoloso 19 10 55 1007 10 O/SO 24
Oggi h: 15:20 nuvoloso Nuvoloso 19 10 55 1007 10 O/SO 24
Oggi h: 14:50 nuvoloso Nuvoloso 19 12 63 1006 10 O 18.5
Oggi h: 14:20 molto_nuvoloso Rovescio nelle Vicinanze 18 13 72 1007 10 O 13
Oggi h: 13:50 molto_nuvoloso Molto Nuvoloso 17 13 77 1007 10 N 7.4
Oggi h: 13:20 nuvoloso Nuvoloso 16 12 77 1007 10 N 5.5
Oggi h: 12:50 molto_nuvoloso Molto Nuvoloso 15 12 82 1007 10 E 7.4
Oggi h: 12:20 molto_nuvoloso Molto Nuvoloso 15 12 82 1007 10 E/SE 11.1
Oggi h: 11:50 molto_nuvoloso Molto Nuvoloso 14 12 87 1007 10 SE 7.4
Oggi h: 11:20 molto_nuvoloso Molto Nuvoloso 13 13 100 1007 10 N 5.5
Oggi h: 10:50 molto_nuvoloso Molto Nuvoloso 13 12 93 1007 10 NO 7.4
Oggi h: 10:20 coperto_pioggia Pioggia Debole Foschia 13 12 93 1007 5 N 5.5
Oggi h: 09:50 coperto_pioggia Pioggia Debole Foschia 13 12 93 1007 5 N 1.8
Oggi h: 09:20 coperto_pioggia Pioggia Debole 13 12 93 1007 8 N 3.7
Oggi h: 08:50 coperto_pioggia Pioggia Debole 13 11 87 1007 7 N 5.5
Oggi h: 08:20 coperto_pioggia Pioggia Debole 13 11 87 1007 10 O/NO 7.4
Oggi h: 07:50 molto_nuvoloso Molto Nuvoloso 13 11 87 1007 10 N 1.8
Oggi h: 07:20 molto_nuvoloso Molto Nuvoloso 13 11 87 1007 10 N 3.7
Oggi h: 06:50 molto_nuvoloso Molto Nuvoloso 13 12 93 1007 10 N 5.5
Oggi h: 06:20 molto_nuvoloso Molto Nuvoloso 13 11 87 1007 10 N 5.5
Oggi h: 05:50 molto_nuvoloso Molto Nuvoloso 13 11 87 1007 10 N 1.8
Oggi h: 05:20 nuvoloso Nuvoloso 13 11 87 1008 10 N 5.5
Oggi h: 04:50 nuvoloso Nuvoloso 13 11 87 1008 10 N 5.5
Oggi h: 04:20 nuvoloso Nuvoloso 13 11 87 1008 10 N 5.5
Oggi h: 03:50 nuvoloso Nuvoloso 13 11 87 1009 10 N 1.8
Oggi h: 03:20 nuvoloso Nuvoloso 13 11 87 1009 10 N 3.7
Oggi h: 02:50 nuvoloso Nuvoloso 13 11 87 1009 10 N 5.5
Oggi h: 02:20 nuvoloso Nuvoloso 12 10 87 1009 10 E/NE 7.4
Oggi h: 01:50 nuvoloso Nuvoloso 13 10 81 1009 10 E 7.4
Oggi h: 01:20 nuvoloso Nuvoloso 13 11 87 1009 10 E/SE 7.4
Oggi h: 00:50 poco_nuvoloso Poco Nuvoloso 14 10 76 1010 10 E 9.3
Oggi h: 00:20 poco_nuvoloso Poco Nuvoloso 14 10 76 1010 10 N 5.5
Ieri h: 23:50 poco_nuvoloso Poco Nuvoloso 14 10 76 1010 10 S/SO 9.3
Ieri h: 23:20 poco_nuvoloso Poco Nuvoloso 14 10 76 1010 10 S/SO 11.1
Ieri h: 22:50 poco_nuvoloso Poco Nuvoloso 14 9 71 1011 10 N 1.8
Ieri h: 22:20 poco_nuvoloso Poco Nuvoloso 14 9 71 1011 10 S 7.4
Ieri h: 21:50 poco_nuvoloso Poco Nuvoloso 15 9 67 1011 10 SO 7.4